Historyczne dane pomiarowe

Dodano dane terminowe – wersja testowa.

Dane z okresu 1951-2019

Wersja bazy: 1.34 [2019-03-16, lista zmian], aktualizacja planowana na 2019-04-15

Dane meteo z obszaru Polski uzyskane na podstawie danych udostępnionych przez Instytut Meteorologii i Gospodarki Wodnej – Państwowy Instytut Badawczy.

 

Wybierz Datę:    

       

TemperaturaWilgotnośćWiatrCiśnienieOpadyŚniegCzas trwania zjawisk
 Stacja t tx tn tng RH VA  wxwx mslp ppp RRR   cm mm wxwxwxwxwxwxwx
2019-06-29 19.4 29.3 10.6 8.8-- 0.0----- 0.0------------
2019-06-28 17.6 25.0 11.4 9.3-- 2.7----- 0.0------------
2019-06-27 20.6 30.8 16.3 15.7-- 3.7----- 0.0------------
2019-06-26 28.3 37.2 19.3 17.6-- 2.7----- 3.3------------
2019-06-25 22.9 31.4 13.3 11.8-- 0.0----- 0.0------------
2019-06-24 19.6 27.9 10.9 9.5-- 0.0----- 0.0------------
2019-06-23 17.7 24.8 11.3 9.8-- 0.0----- 0.0------------
2019-06-22 17.8 24.6 12.1 10.8-- 1.0----- 0.0------------
2019-06-21 20.1 25.4 16.0 15.7-- 8.0----- 1.6------------
2019-06-20 22.2 32.8 17.2 16.2-- 3.3----- 0.5------------
2019-06-19 23.0 30.1 15.4 13.3-- 1.0----- 0.0------------
2019-06-18 19.7 26.3 12.6 10.8-- 0.0----- 0.0------------
2019-06-17 19.7 25.7 12.0 10.4-- 3.0----- 0.0------------
2019-06-16 20.9 28.3 16.0 18.8-- 5.0----- 0.0------------
2019-06-15 23.6 30.1 16.0 14.7-- 6.0----- 0.8------------
2019-06-14 22.0 26.7 18.1 18.2-- 4.0----- 0.0------------
2019-06-13 23.5 30.8 20.1 19.2-- 5.3----- 15.1------------
2019-06-12 27.5 33.9 20.5 19.6-- 1.3----- 0.0------------
2019-06-11 27.1 34.3 20.1 18.7-- 0.0----- 0.0------------
2019-06-10 23.6 30.3 15.8 13.6-- 2.7----- 0.0------------
2019-06-09 19.1 25.3 10.9 7.2-- 0.0----- 0.0------------
2019-06-08 21.0 27.3 16.6 14.3-- 1.3----- 0.0------------
2019-06-07 21.8 29.3 15.8 14.2-- 0.0----- 0.0------------
2019-06-06 23.1 29.3 17.2 16.2-- 0.0----- 0.0------------
2019-06-05 23.3 29.8 10.9 14.2-- 0.0----- 0.0------------
2019-06-04 24.0 29.8 13.3 12.3-- 0.0----- 0.0------------
2019-06-03 22.8 28.8 14.9 12.2-- 0.0----- 0.0------------
2019-06-02 20.6 26.3 13.8 12.3-- 0.0----- 0.0------------
2019-06-01 19.3 24.6 12.4 9.9-- 2.7----- 0.0------------
2019-05-31 16.5 23.3 10.1 8.3-- 6.7----- 0.3------------
2019-05-30 13.0 18.6 4.9 2.0-- 0.0----- 0.0------------
2019-05-29 11.4 16.5 9.2 8.3-- 3.7----- 0.0------------
2019-05-28 15.4 21.3 12.4 11.8-- 8.0----- 11.3------------
2019-05-27 18.4 23.9 13.6 12.3-- 6.7----- 13.4------------
2019-05-26 15.3 20.7 9.3 6.9-- 6.0----- 0.0------------
2019-05-25 15.3 19.8 11.3 10.1-- 5.0----- 0.0------------
2019-05-24 15.5 21.8 9.3 8.3-- 0.0----- 0.0------------
2019-05-23 15.0 21.7 11.8 11.8-- 8.0----- 1.2------------
2019-05-22 17.6 23.5 12.0 10.3-- 5.3----- 0.0------------
2019-05-21 17.3 24.8 13.3 11.3-- 8.0----- 0.7------------
2019-05-20 19.1 25.2 13.7 11.8-- 8.0----- 5.0------------
2019-05-19 17.9 22.3 12.3 10.8-- 5.3----- 0.1------------
2019-05-18 17.4 22.8 11.8 9.3-- 3.3----- 1.3------------
2019-05-17 14.1 18.0 10.8 10.0-- 8.0----- 1.1------------
2019-05-16 12.0 15.2 7.8 7.4-- 8.0----- 6.2------------
2019-05-15 8.5 13.7 5.3 4.6-- 8.0----- 14.1------------
2019-05-14 7.3 10.9 3.5 2.0-- 8.0----- 2.8------------
2019-05-13 8.7 12.6 5.8 4.4-- 5.3----- 2.7------------
2019-05-12 9.8 15.7 7.6 5.4-- 8.0----- 10.7------------
2019-05-11 12.4 16.2 8.3 5.6-- 2.7----- 2.9------------
2019-05-10 11.9 19.8 6.6 4.0-- 6.7----- 0.0------------
2019-05-09 11.2 15.7 8.8 7.9-- 5.3----- 2.1------------
2019-05-08 10.4 15.9 4.6 1.6-- 7.3----- 0.0------------
2019-05-07 8.4 14.2 3.8 2.0-- 2.3----- 0.0------------
2019-05-06 7.8 14.1 0.2 -0.9-- 2.0----- 0.0------------
2019-05-05 7.0 12.6 0.7 0.6-- 2.3----- 0.0------------
2019-05-04 6.6 10.8 4.3 2.2-- 4.0----- 8.1------------
2019-05-03 8.7 13.1 6.7 5.9-- 6.3----- 0.0------------
2019-05-02 10.4 13.4 7.8 6.4-- 8.0----- 0.4------------
2019-05-01 10.6 19.8 4.2 4.0-- 4.3----- 0.1------------
140.7 ms

 

Źródłem pochodzenia danych jest Instytut Meteorologii i Gospodarki Wodnej – Państwowy Instytut Badawczy. Dane Instytutu Meteorologii i Gospodarki Wodnej – Państwowego Instytutu Badawczego zostały przetworzone.

Dane źródłowe można odnaleźć na stronie https://dane.imgw.pl